Regional Weather Roundup
Issued by NWS

Home | Current Version | Previous Version | Text Only | Print | Product List | Glossary On
Versions: 1 2 3 4 5 6 7 8 9 10 11 12 13 14 15 16 17 18 19 20 21 22 23 24 25 26 27 28 29 30 31 32 33 34 35 36 37 38 39 40 41 42 43 44 45 46 47 48 49 50
951
ASCA42 TJSJ 062010
RWRPR
PUERTO RICO/U.S. VIRGIN ISLANDS HOURLY WEATHER ROUNDUP
NATIONAL WEATHER SERVICE SAN JUAN PR
400 PM AST FRI MAY 06 2016

PRZ001-004-062100-
PUERTO RICO

CITY           SKY/WX    TMP DP  RH WIND       PRES   REMARKS
SAN JUAN LMM   PTSUNNY   90  73  58 S9G16     29.86F HX  98
AGUADILLA      MOSUNNY   84  73  70 N7        29.87F HX  91
CEIBA          MOSUNNY   86  75  70 S16       29.91F HX  95
$$

PRZ006-007-062100-
U.S. VIRGIN ISLANDS

CITY           SKY/WX    TMP DP  RH WIND       PRES   REMARKS
CHARLOTTE AMA  SUNNY     86  77  74 E12       29.89F HX  97
CHRISTIANSTED  MOSUNNY   86  75  70 SE8       29.91F HX  95
$$

HOURLY WEATHER ROUNDUP FOR THE NEWS MEDIA

CITY           SKY/WX    TMP DP  RH WIND       PRES   REMARKS
ORLANDO        SUNNY     79  40  24 W18       29.85F
NEW YORK       CLOUDY    52  46  82 E23G35    29.75R
NEWARK         CLOUDY    53  49  86 E12G21    29.73R
CHICAGO        MOSUNNY   79  46  31 SW13      29.85F
HARTFORD       CLOUDY    55  46  71 E12       29.83S
BOSTON         PTSUNNY   49  43  80 E16       29.88F
DALLAS         MOSUNNY   83  47  28 CALM      30.05F
PHILADELPHIA   DRIZZLE   53  49  86 NE17      29.62  FOG
LOS ANGELES    PTSUNNY   65  52  62 SW8       29.90S
WASHINGTON DC  LGT RAIN  53  48  83 NW10      29.68F



USA.gov is the U.S. government's official web portal to all federal, state and local government web resources and services.